Location: Harwich
(41.7160°N, 69.9939°W)
Time: 16:45:36
(UTC+01:00)

ISS - Visible Passes

Search period start: 11 December 2023 00:00
Search period end: 21 December 2023 00:00
Orbit: 415 x 416 km, 51.6° (Epoch: 11 December)

Date Brightness Start Highest point End Pass type
(mag) Time Alt. Az. Time Alt. Az. Time Alt. Az.
14 Dec -0.8 12:21:50 10° S 12:24:29 22° SE 12:27:08 10° E visible
15 Dec -0.4 11:34:23 10° SSE 11:35:55 13° SE 11:37:29 10° ESE visible
16 Dec -3.2 12:20:11 10° SW 12:23:28 61° SE 12:26:47 10° ENE visible
17 Dec -2.1 11:31:42 10° SSW 11:34:45 34° SE 11:37:50 10° ENE visible
18 Dec -1.3 10:44:49 16° SSE 10:46:06 20° SE 10:48:37 10° E visible
18 Dec -3.6 12:19:18 10° WSW 12:22:34 51° NNW 12:25:51 10° NE visible
19 Dec -3.9 11:32:05 28° WSW 11:33:43 85° NW 11:37:05 10° NE visible
20 Dec -2.2 10:46:00 35° E 10:46:00 35° E 10:48:11 10° ENE visible
20 Dec -2.6 12:18:56 10° W 12:21:47 26° NNW 12:24:41 10° NE visible
